Etusivu
METAR-TAF:

METAR-TAF

Lentoasemat :

Livingston County Spencer J. Hardy Airport

Howell, Michigan, Yhdysvallat

Leveyspiiri: 42-37-46N, Pituuspiiri: 083-59-03W, korkeus merenpinnasta: 293 m

Tämänhetkinen sää

Tämä raportti tehtiin 19 minuuttia sitten, kello 09.36 UTC
Tuuli 6 kn koillisesta
Lämpötila 5°C
Kosteus 100%
Ilmanpaine 1009 hPa
Näkyvyys: 2.8 km
Pilvistä 500 ft:n korkeudessa
tuntematon

METAR: KOZW 280936Z AUTO 05006KT 1 3/4SM UP OVC005 05/05 A2980 RMK AO2 P0016 T00520052

Aika: 05:55 (09:55 UTC)


TAF: puuttuu

Säähavainnot ja -ennusteet yli 4000 lentoasemalta (METAR- ja TAF-raportit).

Käytössä olevat sääasemat on merkitty karttaan keltaisilla ja punaisilla pisteillä.

Aseta hiiri pisteen päälle nähdäksesi sääaseman nimen.

Klikkaa sitten nähdäksesi säähavainnot ja -ennusteet.

Kartan vaihtaminen: klikkaa mustalla rastilla varustettuja vihreitä pisteitä, niin voit zoomata sisään; viivalla varustettua vihreää pistettä, niin voit zoomata ulos tai vihreitä nuolia, niin pääset viereisille kartoille.


METAR-TAF: